Year,Month,Day,Hour,Minute,Value (Times are PST for temperature in C)
2014,04,10,00,00,4.00
2014,04,10,00,01,3.90
2014,04,10,00,02,3.90
2014,04,10,00,03,3.90
2014,04,10,00,04,3.90
2014,04,10,00,05,3.80
2014,04,10,00,06,3.80
2014,04,10,00,07,3.80
2014,04,10,00,08,3.80
2014,04,10,00,09,3.80
2014,04,10,00,10,3.80
2014,04,10,00,11,3.80
2014,04,10,00,12,3.80
2014,04,10,00,13,3.80
2014,04,10,00,14,3.80
2014,04,10,00,15,3.80
2014,04,10,00,16,3.80
2014,04,10,00,17,3.70
2014,04,10,00,18,3.70
2014,04,10,00,19,3.70
2014,04,10,00,20,3.70
2014,04,10,00,21,3.70
2014,04,10,00,22,3.70
2014,04,10,00,23,3.70
2014,04,10,00,24,3.60
2014,04,10,00,25,3.60
2014,04,10,00,26,3.60
2014,04,10,00,27,3.60
2014,04,10,00,28,3.50
2014,04,10,00,29,3.50
2014,04,10,00,30,3.50
2014,04,10,00,31,3.50
2014,04,10,00,32,3.50
2014,04,10,00,33,3.50
2014,04,10,00,34,3.50
2014,04,10,00,35,3.50
2014,04,10,00,36,3.50
2014,04,10,00,37,3.50
2014,04,10,00,38,3.50
2014,04,10,00,39,3.50
2014,04,10,00,40,3.40
2014,04,10,00,41,3.40
2014,04,10,00,42,3.40
2014,04,10,00,43,3.40
2014,04,10,00,44,3.40
2014,04,10,00,45,3.40
2014,04,10,00,46,3.40
2014,04,10,00,47,3.40
2014,04,10,00,48,3.30
2014,04,10,00,49,3.40
2014,04,10,00,50,3.40
2014,04,10,00,51,3.40
2014,04,10,00,52,3.40
2014,04,10,00,53,3.40
2014,04,10,00,54,3.40
2014,04,10,00,55,3.40
2014,04,10,00,56,3.40
2014,04,10,00,57,3.40
2014,04,10,00,58,3.30
2014,04,10,00,59,3.30
2014,04,10,01,00,3.30
2014,04,10,01,01,3.20
2014,04,10,01,02,3.20
2014,04,10,01,03,3.20
2014,04,10,01,04,3.10
2014,04,10,01,05,3.10
2014,04,10,01,06,3.10
2014,04,10,01,07,3.10
2014,04,10,01,08,3.10
2014,04,10,01,09,3.10
2014,04,10,01,10,3.10
2014,04,10,01,11,3.10
2014,04,10,01,12,3.10
2014,04,10,01,13,3.10
2014,04,10,01,14,3.10
2014,04,10,01,15,3.10
2014,04,10,01,16,3.10
2014,04,10,01,17,3.10
2014,04,10,01,18,3.10
2014,04,10,01,19,3.10
2014,04,10,01,20,3.10
2014,04,10,01,21,3.00
2014,04,10,01,22,3.00
2014,04,10,01,23,3.00
2014,04,10,01,24,2.90
2014,04,10,01,25,2.90
2014,04,10,01,26,2.90
2014,04,10,01,27,2.90
2014,04,10,01,28,2.90
2014,04,10,01,29,2.90
2014,04,10,01,30,2.90
2014,04,10,01,31,2.80
2014,04,10,01,32,2.80
2014,04,10,01,33,2.80
2014,04,10,01,34,2.80
2014,04,10,01,35,2.80
2014,04,10,01,36,2.80
2014,04,10,01,37,2.80
2014,04,10,01,38,2.70
2014,04,10,01,39,2.70
2014,04,10,01,40,2.70
2014,04,10,01,41,2.70
2014,04,10,01,42,2.70
2014,04,10,01,43,2.70
2014,04,10,01,44,2.70
2014,04,10,01,45,2.70
2014,04,10,01,46,2.70
2014,04,10,01,47,2.70
2014,04,10,01,48,2.70
2014,04,10,01,49,2.70
2014,04,10,01,50,2.70
2014,04,10,01,51,2.70
2014,04,10,01,52,2.70
2014,04,10,01,53,2.70
2014,04,10,01,54,2.70
2014,04,10,01,55,2.70
2014,04,10,01,56,2.70
2014,04,10,01,57,2.70
2014,04,10,01,58,2.70
2014,04,10,01,59,2.70
2014,04,10,02,00,2.70
2014,04,10,02,01,2.70
2014,04,10,02,02,2.70
2014,04,10,02,03,2.70
2014,04,10,02,04,2.70
2014,04,10,02,05,2.70
2014,04,10,02,06,2.70
2014,04,10,02,07,2.80
2014,04,10,02,08,2.80
2014,04,10,02,09,2.80
2014,04,10,02,10,2.80
2014,04,10,02,11,2.80
2014,04,10,02,12,2.80
2014,04,10,02,13,2.80
2014,04,10,02,14,2.80
2014,04,10,02,15,2.80
2014,04,10,02,16,2.80
2014,04,10,02,17,2.80
2014,04,10,02,18,2.80
2014,04,10,02,19,2.80
2014,04,10,02,20,2.80
2014,04,10,02,21,2.80
2014,04,10,02,22,2.80
2014,04,10,02,23,2.80
2014,04,10,02,24,2.80
2014,04,10,02,25,2.80
2014,04,10,02,26,2.80
2014,04,10,02,27,2.80
2014,04,10,02,28,2.80
2014,04,10,02,29,2.80
2014,04,10,02,30,2.80
2014,04,10,02,31,2.80
2014,04,10,02,32,2.80
2014,04,10,02,33,2.80
2014,04,10,02,34,2.80
2014,04,10,02,35,2.80
2014,04,10,02,36,2.80
2014,04,10,02,37,2.80
2014,04,10,02,38,2.90
2014,04,10,02,39,2.90
2014,04,10,02,40,3.00
2014,04,10,02,41,3.10
2014,04,10,02,42,3.20
2014,04,10,02,43,3.20
2014,04,10,02,44,3.30
2014,04,10,02,45,3.40
2014,04,10,02,46,3.50
2014,04,10,02,47,3.60
2014,04,10,02,48,3.60
2014,04,10,02,49,3.70
2014,04,10,02,50,3.80
2014,04,10,02,51,3.80
2014,04,10,02,52,3.80
2014,04,10,02,53,3.80
2014,04,10,02,54,3.80
2014,04,10,02,55,3.80
2014,04,10,02,56,3.80
2014,04,10,02,57,3.80
2014,04,10,02,58,3.70
2014,04,10,02,59,3.70
2014,04,10,03,00,3.70
2014,04,10,03,01,3.70
2014,04,10,03,02,3.70
2014,04,10,03,03,3.70
2014,04,10,03,06,3.70
2014,04,10,03,07,3.70
2014,04,10,03,08,3.70
2014,04,10,03,09,3.70
2014,04,10,03,10,3.60
2014,04,10,03,11,3.60
2014,04,10,03,12,3.60
2014,04,10,03,13,3.50
2014,04,10,03,14,3.50
2014,04,10,03,15,3.40
2014,04,10,03,16,3.30
2014,04,10,03,17,3.30
2014,04,10,03,18,3.20
2014,04,10,03,19,3.20
2014,04,10,03,20,3.20
2014,04,10,03,21,3.10
2014,04,10,03,22,3.10
2014,04,10,03,23,3.10
2014,04,10,03,24,3.10
2014,04,10,03,25,3.10
2014,04,10,03,26,3.10
2014,04,10,03,27,3.00
2014,04,10,03,28,3.00
2014,04,10,03,29,3.00
2014,04,10,03,30,3.00
2014,04,10,03,31,3.00
2014,04,10,03,32,3.00
2014,04,10,03,33,3.00
2014,04,10,03,34,2.90
2014,04,10,03,35,3.00
2014,04,10,03,36,2.90
2014,04,10,03,37,2.90
2014,04,10,03,38,2.90
2014,04,10,03,39,2.80
2014,04,10,03,40,2.80
2014,04,10,03,41,2.80
2014,04,10,03,42,2.80
2014,04,10,03,43,2.80
2014,04,10,03,44,2.70
2014,04,10,03,45,2.70
2014,04,10,03,46,2.80
2014,04,10,03,47,2.80
2014,04,10,03,48,2.90
2014,04,10,03,49,3.00
2014,04,10,03,50,3.00
2014,04,10,03,51,3.10
2014,04,10,03,52,3.20
2014,04,10,03,53,3.20
2014,04,10,03,54,3.30
2014,04,10,03,55,3.40
2014,04,10,03,56,3.50
2014,04,10,03,57,3.50
2014,04,10,03,58,3.60
2014,04,10,03,59,3.60
2014,04,10,04,00,3.50
2014,04,10,04,01,3.50
2014,04,10,04,02,3.50
2014,04,10,04,03,3.50
2014,04,10,04,04,3.50
2014,04,10,04,05,3.50
2014,04,10,04,06,3.50
2014,04,10,04,07,3.60
2014,04,10,04,08,3.60
2014,04,10,04,09,3.60
2014,04,10,04,10,3.60
2014,04,10,04,11,3.50
2014,04,10,04,12,3.50
2014,04,10,04,13,3.50
2014,04,10,04,14,3.40
2014,04,10,04,15,3.40
2014,04,10,04,16,3.30
2014,04,10,04,17,3.30
2014,04,10,04,18,3.20
2014,04,10,04,19,3.20
2014,04,10,04,20,3.10
2014,04,10,04,21,3.10
2014,04,10,04,22,3.00
2014,04,10,04,23,2.90
2014,04,10,04,24,2.90
2014,04,10,04,25,2.90
2014,04,10,04,26,2.80
2014,04,10,04,27,2.80
2014,04,10,04,28,2.80
2014,04,10,04,29,2.80
2014,04,10,04,30,2.80
2014,04,10,04,31,2.80
2014,04,10,04,32,2.80
2014,04,10,04,33,2.80
2014,04,10,04,34,2.80
2014,04,10,04,35,2.80
2014,04,10,04,36,2.80
2014,04,10,04,37,2.80
2014,04,10,04,38,2.80
2014,04,10,04,39,2.80
2014,04,10,04,40,2.90
2014,04,10,04,41,2.90
2014,04,10,04,42,3.00
2014,04,10,04,43,3.10
2014,04,10,04,44,3.10
2014,04,10,04,45,3.20
2014,04,10,04,46,3.20
2014,04,10,04,47,3.30
2014,04,10,04,48,3.30
2014,04,10,04,49,3.20
2014,04,10,04,50,3.20
2014,04,10,04,51,3.20
2014,04,10,04,52,3.20
2014,04,10,04,53,3.20
2014,04,10,04,54,3.20
2014,04,10,04,55,3.20
2014,04,10,04,56,3.20
2014,04,10,04,57,3.20
2014,04,10,04,58,3.30
2014,04,10,04,59,3.30
2014,04,10,05,00,3.20
2014,04,10,05,01,3.20
2014,04,10,05,02,3.10
2014,04,10,05,03,3.00
2014,04,10,05,04,3.00
2014,04,10,05,05,2.90
2014,04,10,05,06,2.90
2014,04,10,05,07,2.80
2014,04,10,05,08,2.80
2014,04,10,05,09,2.70
2014,04,10,05,10,2.70
2014,04,10,05,11,2.70
2014,04,10,05,12,2.60
2014,04,10,05,13,2.60
2014,04,10,05,14,2.60
2014,04,10,05,15,2.50
2014,04,10,05,16,2.50
2014,04,10,05,17,2.50
2014,04,10,05,18,2.50
2014,04,10,05,19,2.50
2014,04,10,05,20,2.40
2014,04,10,05,21,2.40
2014,04,10,05,22,2.40
2014,04,10,05,23,2.40
2014,04,10,05,24,2.40
2014,04,10,05,25,2.40
2014,04,10,05,26,2.40
2014,04,10,05,27,2.40
2014,04,10,05,28,2.40
2014,04,10,05,29,2.40
2014,04,10,05,30,2.40
2014,04,10,05,31,2.50
2014,04,10,05,32,2.50
2014,04,10,05,33,2.50
2014,04,10,05,34,2.60
2014,04,10,05,35,2.70
2014,04,10,05,36,2.70
2014,04,10,05,37,2.70
2014,04,10,05,38,2.80
2014,04,10,05,39,2.80
2014,04,10,05,40,2.80
2014,04,10,05,41,2.90
2014,04,10,05,42,2.90
2014,04,10,05,43,2.90
2014,04,10,05,44,2.90
2014,04,10,05,45,2.90
2014,04,10,05,46,2.90
2014,04,10,05,47,2.90
2014,04,10,05,48,2.90
2014,04,10,05,49,2.90
2014,04,10,05,50,2.90
2014,04,10,05,51,2.90
2014,04,10,05,52,2.90
2014,04,10,05,53,2.80
2014,04,10,05,54,2.80
2014,04,10,05,55,2.80
2014,04,10,05,56,2.90
2014,04,10,05,57,2.90
2014,04,10,05,58,2.90
2014,04,10,05,59,2.90
2014,04,10,06,00,2.90
2014,04,10,06,01,2.90
2014,04,10,06,02,2.90
2014,04,10,06,03,2.90
2014,04,10,06,04,2.90
2014,04,10,06,05,2.90
2014,04,10,06,06,2.90
2014,04,10,06,07,2.80
2014,04,10,06,08,2.90
2014,04,10,06,09,2.90
2014,04,10,06,10,2.80
2014,04,10,06,11,2.80
2014,04,10,06,12,2.80
2014,04,10,06,13,2.80
2014,04,10,06,14,2.80
2014,04,10,06,15,2.80
2014,04,10,06,16,2.80
2014,04,10,06,17,2.80
2014,04,10,06,18,2.80
2014,04,10,06,19,2.80
2014,04,10,06,20,2.80
2014,04,10,06,21,2.80
2014,04,10,06,22,2.70
2014,04,10,06,23,2.70
2014,04,10,06,24,2.70
2014,04,10,06,25,2.70
2014,04,10,06,26,2.80
2014,04,10,06,27,2.80
2014,04,10,06,28,2.80
2014,04,10,06,29,2.70
2014,04,10,06,30,2.70
2014,04,10,06,31,2.70
2014,04,10,06,32,2.70
2014,04,10,06,33,2.70
2014,04,10,06,34,2.70
2014,04,10,06,35,2.70
2014,04,10,06,36,2.70
2014,04,10,06,37,2.80
2014,04,10,06,38,2.80
2014,04,10,06,39,2.80
2014,04,10,06,40,2.80
2014,04,10,06,41,2.80
2014,04,10,06,42,2.80
2014,04,10,06,43,2.80
2014,04,10,06,44,2.80
2014,04,10,06,45,2.80
2014,04,10,06,46,2.80
2014,04,10,06,47,2.90
2014,04,10,06,48,2.90
2014,04,10,06,49,2.90
2014,04,10,06,50,3.00
2014,04,10,06,51,3.10
2014,04,10,06,52,3.10
2014,04,10,06,53,3.20
2014,04,10,06,54,3.30
2014,04,10,06,55,3.40
2014,04,10,06,56,3.40
2014,04,10,06,57,3.50
2014,04,10,06,58,3.50
2014,04,10,06,59,3.50
2014,04,10,07,00,3.60
2014,04,10,07,01,3.60
2014,04,10,07,02,3.60
2014,04,10,07,03,3.60
2014,04,10,07,04,3.60
2014,04,10,07,05,3.60
2014,04,10,07,06,3.60
2014,04,10,07,07,3.60
2014,04,10,07,08,3.60
2014,04,10,07,09,3.70
2014,04,10,07,10,3.70
2014,04,10,07,11,3.70
2014,04,10,07,12,3.70
2014,04,10,07,13,3.70
2014,04,10,07,14,3.80
2014,04,10,07,15,3.80
2014,04,10,07,16,3.80
2014,04,10,07,17,3.80
2014,04,10,07,18,3.80
2014,04,10,07,19,3.80
2014,04,10,07,20,3.80
2014,04,10,07,21,3.80
2014,04,10,07,22,3.80
2014,04,10,07,23,3.90
2014,04,10,07,24,3.90
2014,04,10,07,25,3.90
2014,04,10,07,26,3.90
2014,04,10,07,27,3.90
2014,04,10,07,28,4.00
2014,04,10,07,29,4.00
2014,04,10,07,30,4.10
2014,04,10,07,31,4.10
2014,04,10,07,32,4.10
2014,04,10,07,33,4.10
2014,04,10,07,34,4.10
2014,04,10,07,35,4.10
2014,04,10,07,36,4.10
2014,04,10,07,37,4.10
2014,04,10,07,38,4.20
2014,04,10,07,39,4.20
2014,04,10,07,40,4.20
2014,04,10,07,41,4.20
2014,04,10,07,42,4.20
2014,04,10,07,43,4.30
2014,04,10,07,44,4.30
2014,04,10,07,45,4.30
2014,04,10,07,46,4.30
2014,04,10,07,47,4.40
2014,04,10,07,48,4.40
2014,04,10,07,49,4.40
2014,04,10,07,50,4.50
2014,04,10,07,51,4.60
2014,04,10,07,52,4.60
2014,04,10,07,53,4.60
2014,04,10,07,54,4.70
2014,04,10,07,55,4.70
2014,04,10,07,56,4.80
2014,04,10,07,57,4.80
2014,04,10,07,58,4.80
2014,04,10,07,59,4.80
2014,04,10,08,00,4.90
2014,04,10,08,01,4.90
2014,04,10,08,02,4.90
2014,04,10,08,03,4.90
2014,04,10,08,04,5.00
2014,04,10,08,05,5.00
2014,04,10,08,06,5.00
2014,04,10,08,07,5.00
2014,04,10,08,08,5.10
2014,04,10,08,09,5.10
2014,04,10,08,10,5.10
2014,04,10,08,11,5.10
2014,04,10,08,12,5.10
2014,04,10,08,13,5.10
2014,04,10,08,14,5.10
2014,04,10,08,15,5.20
2014,04,10,08,16,5.20
2014,04,10,08,17,5.20
2014,04,10,08,18,5.30
2014,04,10,08,19,5.30
2014,04,10,08,20,5.30
2014,04,10,08,21,5.40
2014,04,10,08,22,5.40
2014,04,10,08,23,5.50
2014,04,10,08,24,5.50
2014,04,10,08,25,5.60
2014,04,10,08,26,5.60
2014,04,10,08,27,5.70
2014,04,10,08,28,5.70
2014,04,10,08,29,5.70
2014,04,10,08,30,5.70
2014,04,10,08,31,5.70
2014,04,10,08,32,5.80
2014,04,10,08,33,5.80
2014,04,10,08,34,5.90
2014,04,10,08,35,5.90
2014,04,10,08,36,6.00
2014,04,10,08,37,6.00
2014,04,10,08,38,6.10
2014,04,10,08,39,6.10
2014,04,10,08,40,6.20
2014,04,10,08,41,6.30
2014,04,10,08,42,6.30
2014,04,10,08,43,6.40
2014,04,10,08,44,6.40
2014,04,10,08,45,6.50
2014,04,10,08,46,6.60
2014,04,10,08,47,6.60
2014,04,10,08,48,6.60
2014,04,10,08,49,6.60
2014,04,10,08,50,6.70
2014,04,10,08,51,6.70
2014,04,10,08,52,6.70
2014,04,10,08,53,6.80
2014,04,10,08,54,6.80
2014,04,10,08,55,6.90
2014,04,10,08,56,7.00
2014,04,10,08,57,7.00
2014,04,10,08,58,7.10
2014,04,10,08,59,7.10
2014,04,10,09,00,7.20
2014,04,10,09,01,7.20
2014,04,10,09,02,7.20
2014,04,10,09,03,7.30
2014,04,10,09,04,7.40
2014,04,10,09,05,7.40
2014,04,10,09,06,7.50
2014,04,10,09,07,7.60
2014,04,10,09,08,7.60
2014,04,10,09,09,7.70
2014,04,10,09,10,7.80
2014,04,10,09,11,7.90
2014,04,10,09,12,8.00
2014,04,10,09,13,8.00
2014,04,10,09,14,8.10
2014,04,10,09,15,8.20
2014,04,10,09,16,8.20
2014,04,10,09,17,8.30
2014,04,10,09,18,8.30
2014,04,10,09,19,8.30
2014,04,10,09,20,8.30
2014,04,10,09,21,8.30
2014,04,10,09,22,8.40
2014,04,10,09,23,8.40
2014,04,10,09,24,8.40
2014,04,10,09,25,8.40
2014,04,10,09,26,8.40
2014,04,10,09,27,8.50
2014,04,10,09,28,8.60
2014,04,10,09,29,8.60
2014,04,10,09,30,8.60
2014,04,10,09,31,8.70
2014,04,10,09,32,8.70
2014,04,10,09,33,8.70
2014,04,10,09,34,8.70
2014,04,10,09,35,8.80
2014,04,10,09,36,8.80
2014,04,10,09,37,8.80
2014,04,10,09,38,8.90
2014,04,10,09,39,8.90
2014,04,10,09,40,9.00
2014,04,10,09,41,9.10
2014,04,10,09,42,9.10
2014,04,10,09,43,9.20
2014,04,10,09,44,9.30
2014,04,10,09,45,9.40
2014,04,10,09,46,9.40
2014,04,10,09,47,9.50
2014,04,10,09,48,9.60
2014,04,10,09,49,9.60
2014,04,10,09,50,9.50
2014,04,10,09,51,9.50
2014,04,10,09,52,9.50
2014,04,10,09,53,9.50
2014,04,10,09,54,9.50
2014,04,10,09,55,9.50
2014,04,10,09,56,9.50
2014,04,10,09,57,9.50
2014,04,10,09,58,9.50
2014,04,10,09,59,9.50
2014,04,10,10,00,9.50
2014,04,10,10,01,9.60
2014,04,10,10,02,9.60
2014,04,10,10,03,9.60
2014,04,10,10,04,9.70
2014,04,10,10,05,9.70
2014,04,10,10,06,9.80
2014,04,10,10,07,9.90
2014,04,10,10,08,10.00
2014,04,10,10,09,10.00
2014,04,10,10,10,10.10
2014,04,10,10,11,10.20
2014,04,10,10,12,10.30
2014,04,10,10,13,10.40
2014,04,10,10,14,10.50
2014,04,10,10,15,10.60
2014,04,10,10,16,10.70
2014,04,10,10,17,10.80
2014,04,10,10,18,10.90
2014,04,10,10,19,11.00
2014,04,10,10,20,11.10
2014,04,10,10,21,11.10
2014,04,10,10,22,11.20
2014,04,10,10,23,11.30
2014,04,10,10,24,11.40
2014,04,10,10,25,11.50
2014,04,10,10,26,11.60
2014,04,10,10,27,11.70
2014,04,10,10,28,11.80
2014,04,10,10,29,11.90
2014,04,10,10,30,11.90
2014,04,10,10,31,11.90
2014,04,10,10,32,11.90
2014,04,10,10,33,11.90
2014,04,10,10,34,12.00
2014,04,10,10,35,12.10
2014,04,10,10,36,12.10
2014,04,10,10,37,12.20
2014,04,10,10,38,12.20
2014,04,10,10,39,12.20
2014,04,10,10,40,12.20
2014,04,10,10,41,12.10
2014,04,10,10,42,12.00
2014,04,10,10,43,11.90
2014,04,10,10,44,11.80
2014,04,10,10,45,11.70
2014,04,10,10,46,11.60
2014,04,10,10,47,11.50
2014,04,10,10,48,11.50
2014,04,10,10,49,11.40
2014,04,10,10,50,11.40
2014,04,10,10,51,11.40
2014,04,10,10,52,11.40
2014,04,10,10,53,11.40
2014,04,10,10,54,11.50
2014,04,10,10,55,11.60
2014,04,10,10,56,11.70
2014,04,10,10,57,11.70
2014,04,10,10,58,11.70
2014,04,10,10,59,11.60
2014,04,10,11,00,11.70
2014,04,10,11,01,11.70
2014,04,10,11,02,11.60
2014,04,10,11,03,11.60
2014,04,10,11,04,11.60
2014,04,10,11,05,11.60
2014,04,10,11,06,11.60
2014,04,10,11,07,11.70
2014,04,10,11,08,11.70
2014,04,10,11,09,11.80
2014,04,10,11,10,11.70
2014,04,10,11,11,11.70
2014,04,10,11,12,11.70
2014,04,10,11,13,11.80
2014,04,10,11,14,11.70
2014,04,10,11,15,11.70
2014,04,10,11,16,11.80
2014,04,10,11,17,11.80
2014,04,10,11,18,11.70
2014,04,10,11,19,11.60
2014,04,10,11,20,11.50
2014,04,10,11,21,11.30
2014,04,10,11,22,11.30
2014,04,10,11,23,11.30
2014,04,10,11,24,11.40
2014,04,10,11,25,11.40
2014,04,10,11,26,11.40
2014,04,10,11,27,11.40
2014,04,10,11,28,11.40
2014,04,10,11,29,11.40
2014,04,10,11,30,11.40
2014,04,10,11,31,11.30
2014,04,10,11,32,11.30
2014,04,10,11,33,11.30
2014,04,10,11,34,11.30
2014,04,10,11,35,11.40
2014,04,10,11,36,11.40
2014,04,10,11,37,11.40
2014,04,10,11,38,11.40
2014,04,10,11,39,11.40
2014,04,10,11,40,11.40
2014,04,10,11,41,11.30
2014,04,10,11,42,11.30
2014,04,10,11,43,11.30
2014,04,10,11,44,11.40
2014,04,10,11,45,11.50
2014,04,10,11,46,11.50
2014,04,10,11,47,11.40
2014,04,10,11,48,11.40
2014,04,10,11,49,11.30
2014,04,10,11,50,11.20
2014,04,10,11,51,11.30
2014,04,10,11,52,11.30
2014,04,10,11,53,11.30
2014,04,10,11,54,11.30
2014,04,10,11,55,11.40
2014,04,10,11,56,11.40
2014,04,10,11,57,11.40
2014,04,10,11,58,11.40
2014,04,10,11,59,11.50
2014,04,10,12,00,11.50
2014,04,10,12,01,11.60
2014,04,10,12,02,11.60
2014,04,10,12,03,11.70
2014,04,10,12,04,11.80
2014,04,10,12,05,11.80
2014,04,10,12,06,11.80
2014,04,10,12,07,11.80
2014,04,10,12,08,11.80
2014,04,10,12,09,11.80
2014,04,10,12,10,11.70
2014,04,10,12,11,11.60
2014,04,10,12,12,11.50
2014,04,10,12,13,11.50
2014,04,10,12,14,11.40
2014,04,10,12,15,11.40
2014,04,10,12,16,11.40
2014,04,10,12,17,11.40
2014,04,10,12,18,11.40
2014,04,10,12,19,11.40
2014,04,10,12,20,11.40
2014,04,10,12,21,11.30
2014,04,10,12,22,11.20
2014,04,10,12,23,11.10
2014,04,10,12,24,11.10
2014,04,10,12,25,11.10
2014,04,10,12,26,11.20
2014,04,10,12,27,11.30
2014,04,10,12,28,11.40
2014,04,10,12,29,11.50
2014,04,10,12,30,11.50
2014,04,10,12,31,11.70
2014,04,10,12,32,11.80
2014,04,10,12,33,11.90
2014,04,10,12,34,12.00
2014,04,10,12,35,12.00
2014,04,10,12,36,11.90
2014,04,10,12,37,11.90
2014,04,10,12,38,11.90
2014,04,10,12,39,11.80
2014,04,10,12,40,11.80
2014,04,10,12,41,11.70
2014,04,10,12,42,11.60
2014,04,10,12,43,11.60
2014,04,10,12,44,11.50
2014,04,10,12,45,11.50
2014,04,10,12,46,11.50
2014,04,10,12,47,11.50
2014,04,10,12,48,11.50
2014,04,10,12,49,11.50
2014,04,10,12,50,11.60
2014,04,10,12,51,11.60
2014,04,10,12,52,11.60
2014,04,10,12,53,11.60
2014,04,10,12,54,11.60
2014,04,10,12,55,11.60
2014,04,10,12,56,11.70
2014,04,10,12,57,11.70
2014,04,10,12,58,11.80
2014,04,10,12,59,11.80
2014,04,10,13,00,11.90
2014,04,10,13,01,12.00
2014,04,10,13,02,12.20
2014,04,10,13,03,12.30
2014,04,10,13,04,12.40
2014,04,10,13,05,12.50
2014,04,10,13,06,12.50
2014,04,10,13,07,12.60
2014,04,10,13,08,12.60
2014,04,10,13,09,12.50
2014,04,10,13,10,12.40
2014,04,10,13,11,12.30
2014,04,10,13,12,12.30
2014,04,10,13,13,12.20
2014,04,10,13,14,12.20
2014,04,10,13,15,12.10
2014,04,10,13,16,12.00
2014,04,10,13,17,11.90
2014,04,10,13,18,11.90
2014,04,10,13,19,11.90
2014,04,10,13,20,11.90
2014,04,10,13,21,11.90
2014,04,10,13,22,11.90
2014,04,10,13,23,11.90
2014,04,10,13,24,11.90
2014,04,10,13,25,11.90
2014,04,10,13,26,11.80
2014,04,10,13,27,11.80
2014,04,10,13,28,11.80
2014,04,10,13,29,11.70
2014,04,10,13,30,11.60
2014,04,10,13,31,11.60
2014,04,10,13,32,11.60
2014,04,10,13,33,11.50
2014,04,10,13,34,11.50
2014,04,10,13,35,11.50
2014,04,10,13,36,11.60
2014,04,10,13,37,11.60
2014,04,10,13,38,11.60
2014,04,10,13,39,11.60
2014,04,10,13,40,11.60
2014,04,10,13,41,11.60
2014,04,10,13,42,11.60
2014,04,10,13,43,11.60
2014,04,10,13,44,11.60
2014,04,10,13,45,11.60
2014,04,10,13,46,11.60
2014,04,10,13,47,11.70
2014,04,10,13,48,11.80
2014,04,10,13,49,11.80
2014,04,10,13,50,11.90
2014,04,10,13,51,12.00
2014,04,10,13,52,12.00
2014,04,10,13,53,12.10
2014,04,10,13,54,12.10
2014,04,10,13,55,12.00
2014,04,10,13,56,11.90
2014,04,10,13,57,11.90
2014,04,10,13,58,11.70
2014,04,10,13,59,11.60
2014,04,10,14,00,11.60
2014,04,10,14,01,11.50
2014,04,10,14,02,11.50
2014,04,10,14,03,11.50
2014,04,10,14,04,11.60
2014,04,10,14,05,11.60
2014,04,10,14,06,11.60
2014,04,10,14,07,11.60
2014,04,10,14,08,11.50
2014,04,10,14,09,11.50
2014,04,10,14,10,11.50
2014,04,10,14,11,11.50
2014,04,10,14,12,11.50
2014,04,10,14,13,11.50
2014,04,10,14,14,11.50
2014,04,10,14,15,11.60
2014,04,10,14,16,11.60
2014,04,10,14,17,11.60
2014,04,10,14,18,11.60
2014,04,10,14,19,11.60
2014,04,10,14,20,11.60
2014,04,10,14,21,11.70
2014,04,10,14,22,11.70
2014,04,10,14,23,11.70
2014,04,10,14,24,11.70
2014,04,10,14,25,11.70
2014,04,10,14,26,11.70
2014,04,10,14,27,11.70
2014,04,10,14,28,11.80
2014,04,10,14,29,12.00
2014,04,10,14,30,12.00
2014,04,10,14,31,12.10
2014,04,10,14,32,12.10
2014,04,10,14,33,12.00
2014,04,10,14,34,12.00
2014,04,10,14,35,12.00
2014,04,10,14,36,12.10
2014,04,10,14,37,12.20
2014,04,10,14,38,12.20
2014,04,10,14,39,12.30
2014,04,10,14,40,12.20
2014,04,10,14,41,12.10
2014,04,10,14,42,12.00
2014,04,10,14,43,12.00
2014,04,10,14,44,12.00
2014,04,10,14,45,12.00
2014,04,10,14,46,12.10
2014,04,10,14,47,12.10
2014,04,10,14,48,12.10
2014,04,10,14,49,12.10
2014,04,10,14,50,12.10
2014,04,10,14,51,12.10
2014,04,10,14,52,12.10
2014,04,10,14,53,12.00
2014,04,10,14,54,12.10
2014,04,10,14,55,12.20
2014,04,10,14,56,12.20
2014,04,10,14,57,12.30
2014,04,10,14,58,12.20
2014,04,10,14,59,12.20
2014,04,10,15,00,12.20
2014,04,10,15,01,12.20
2014,04,10,15,02,12.20
2014,04,10,15,03,12.20
2014,04,10,15,04,12.10
2014,04,10,15,05,12.10
2014,04,10,15,06,12.20
2014,04,10,15,07,12.20
2014,04,10,15,08,12.10
2014,04,10,15,09,12.20
2014,04,10,15,10,12.20
2014,04,10,15,11,12.30
2014,04,10,15,12,12.30
2014,04,10,15,13,12.30
2014,04,10,15,14,12.30
2014,04,10,15,15,12.40
2014,04,10,15,16,12.40
2014,04,10,15,17,12.40
2014,04,10,15,18,12.40
2014,04,10,15,19,12.40
2014,04,10,15,20,12.30
2014,04,10,15,21,12.30
2014,04,10,15,22,12.20
2014,04,10,15,23,12.20
2014,04,10,15,24,12.20
2014,04,10,15,25,12.20
2014,04,10,15,26,12.20
2014,04,10,15,27,12.20
2014,04,10,15,28,12.20
2014,04,10,15,29,12.20
2014,04,10,15,30,12.20
2014,04,10,15,31,12.20
2014,04,10,15,32,12.20
2014,04,10,15,33,12.20
2014,04,10,15,34,12.30
2014,04,10,15,35,12.20
2014,04,10,15,36,12.10
2014,04,10,15,37,12.10
2014,04,10,15,38,12.10
2014,04,10,15,39,12.10
2014,04,10,15,40,12.10
2014,04,10,15,41,12.00
2014,04,10,15,42,12.00
2014,04,10,15,43,12.00
2014,04,10,15,44,11.90
2014,04,10,15,45,12.00
2014,04,10,15,46,12.00
2014,04,10,15,47,12.00
2014,04,10,15,48,12.00
2014,04,10,15,49,12.00
2014,04,10,15,50,12.00
2014,04,10,15,51,12.00
2014,04,10,15,52,12.00
2014,04,10,15,53,12.10
2014,04,10,15,54,12.10
2014,04,10,15,55,12.20
2014,04,10,15,56,12.20
2014,04,10,15,57,12.30
2014,04,10,15,58,12.30
2014,04,10,15,59,12.30
2014,04,10,16,00,12.30
2014,04,10,16,01,12.30
2014,04,10,16,02,12.20
2014,04,10,16,03,12.20
2014,04,10,16,04,12.10
2014,04,10,16,05,12.10
2014,04,10,16,06,12.10
2014,04,10,16,07,12.20
2014,04,10,16,08,12.20
2014,04,10,16,09,12.20
2014,04,10,16,10,12.20
2014,04,10,16,11,12.30
2014,04,10,16,12,12.30
2014,04,10,16,13,12.30
2014,04,10,16,14,12.30
2014,04,10,16,15,12.40
2014,04,10,16,16,12.40
2014,04,10,16,17,12.40
2014,04,10,16,18,12.30
2014,04,10,16,19,12.30
2014,04,10,16,20,12.30
2014,04,10,16,21,12.30
2014,04,10,16,22,12.30
2014,04,10,16,23,12.30
2014,04,10,16,24,12.30
2014,04,10,16,25,12.40
2014,04,10,16,26,12.50
2014,04,10,16,27,12.50
2014,04,10,16,28,12.50
2014,04,10,16,29,12.60
2014,04,10,16,30,12.60
2014,04,10,16,31,12.60
2014,04,10,16,32,12.60
2014,04,10,16,33,12.60
2014,04,10,16,34,12.50
2014,04,10,16,35,12.50
2014,04,10,16,36,12.50
2014,04,10,16,37,12.40
2014,04,10,16,38,12.40
2014,04,10,16,39,12.40
2014,04,10,16,40,12.30
2014,04,10,16,41,12.30
2014,04,10,16,42,12.30
2014,04,10,16,43,12.30
2014,04,10,16,44,12.20
2014,04,10,16,45,12.20
2014,04,10,16,46,12.10
2014,04,10,16,47,12.10
2014,04,10,16,48,12.10
2014,04,10,16,49,12.00
2014,04,10,16,50,12.00
2014,04,10,16,51,11.90
2014,04,10,16,52,11.90
2014,04,10,16,53,11.90
2014,04,10,16,54,11.90
2014,04,10,16,55,11.90
2014,04,10,16,56,11.80
2014,04,10,16,57,11.80
2014,04,10,16,58,11.80
2014,04,10,16,59,11.90
2014,04,10,17,00,11.90
2014,04,10,17,01,11.90
2014,04,10,17,02,12.00
2014,04,10,17,03,12.00
2014,04,10,17,04,12.10
2014,04,10,17,05,12.10
2014,04,10,17,06,12.10
2014,04,10,17,07,12.10
2014,04,10,17,08,12.10
2014,04,10,17,09,12.20
2014,04,10,17,10,12.30
2014,04,10,17,11,12.30
2014,04,10,17,12,12.30
2014,04,10,17,13,12.30
2014,04,10,17,14,12.30
2014,04,10,17,15,12.30
2014,04,10,17,16,12.40
2014,04,10,17,17,12.40
2014,04,10,17,18,12.30
2014,04,10,17,19,12.20
2014,04,10,17,20,12.20
2014,04,10,17,21,12.30
2014,04,10,17,22,12.30
2014,04,10,17,23,12.30
2014,04,10,17,24,12.30
2014,04,10,17,25,12.30
2014,04,10,17,26,12.40
2014,04,10,17,27,12.40
2014,04,10,17,28,12.50
2014,04,10,17,29,12.60
2014,04,10,17,30,12.60
2014,04,10,17,31,12.60
2014,04,10,17,32,12.50
2014,04,10,17,33,12.50
2014,04,10,17,34,12.50
2014,04,10,17,35,12.50
2014,04,10,17,36,12.50
2014,04,10,17,37,12.50
2014,04,10,17,38,12.40
2014,04,10,17,39,12.30
2014,04,10,17,40,12.30
2014,04,10,17,41,12.30
2014,04,10,17,42,12.20
2014,04,10,17,43,12.20
2014,04,10,17,44,12.20
2014,04,10,17,45,12.10
2014,04,10,17,46,12.10
2014,04,10,17,47,12.10